User: anonymous   Login
Location: Unspecified
(0.0000°N, 0.0000°E)
Time: 04:34:31
(UTC+00:00)
Language:

IBEX - Orbit

View from above orbital plane
View from above orbital plane
View from above satellite
View from above satellite

Ground track
Ground track

The orbit data is extracted from the following two-line orbital elements,

1 33401U 08051A   15082.27289372 -.00001956  00000-0  00000+0 0  9992
2 33401 015.2398 129.9412 5045010 010.7551 354.7806 00.11185799  2740
Epoch (UTC): 23 March 2015 06:32:58
Eccentricity: 0.5045010
inclination: 15.2398°
perigee height: 83778 km
apogee height: 267366 km
right ascension of ascending node: 129.9412°
argument of perigee: 10.7551°
revolutions per day: 0.11185799
mean anomaly at epoch: 354.7806°
orbit number at epoch: 274

The dashed part of the orbit path shows where the satellite is in the earth's shadow,  

DLR